Location: Ravensburg
(48.5621°N, 13.4088°E)
Time: 10:30:41
(UTC+01:00)

ISS - Pass Details

Date: 16 November 2017
Orbit: 401 x 407 km, 51.6° (Epoch: 25 November)

Event Time Altitude Azimuth Distance (km) Brightness Sun altitude
Exits shadow 05:38:26 25° 225° (SW) 867 -2.5 -16.0°
Maximum altitude 05:38:40 25° 217° (SW) 861 -2.4 -16.0°
Drops below altitude 10° 05:41:23 10° 161° (SSE) 1,448 -0.6 -15.5°
Sets 05:43:40 0° 147° (SSE) 2,303 0.7 -15.2°
